Fort Polk, LA

9:16 PM CDT on August 17, 2017 (GMT -0500)
Fort Polk

Weather History for KAQV - March, 2013

Change the Weather History Date:

Tuesday, March 26, 2013

  Actual Average (KPOE) Record (KPOE)
Temperature  
Mean Temperature 42 °F -  
Max Temperature 57 °F 69 °F 84 °F (2012)
Min Temperature 27 °F 50 °F 28 °F (2013)
Degree Days  
Heating Degree Days 23    
Moisture  
Dew Point 23 °F    
Average Humidity 54    
Maximum Humidity 89    
Minimum Humidity 23    
Precipitation  
Precipitation 0.00 in - - ()
Sea Level Pressure  
Sea Level Pressure 30.38 in    
Wind  
Wind Speed 3 mph (North)    
Max Wind Speed 12 mph    
Max Gust Speed 20 mph    
Visibility 10 miles    
Events      
Averages and records for this station are not official NWS values.
T = Trace of Precipitation, MM = Missing Value Source: NWS Daily Summary

Daily Weather History Graph

Daily Weather History Graph

Search for Another Location

Airport or City:

Trip Planner

Search our weather history database for the weather conditions in past years. The results will help you decide how hot, cold, wet, or windy it might be!

Date:

Astronomy

Mar. 26, 2013 Rise Set
Actual Time 7:09 AM CDT 7:28 PM CDT
Civil Twilight 6:44 AM CDT 7:53 PM CDT
Nautical Twilight 6:16 AM CDT 8:21 PM CDT
Astronomical Twilight 5:47 AM CDT 8:50 PM CDT
Moon 7:05 PM CDT (3/26) 6:24 AM CDT (3/26)
Length of Visible Light 13h 08m
Length of Day
12h 19m
Waxing Gibbous, 99% of the Moon is Illuminated
Mar 26
Waxing Gibbous
Mar 27
Full
Apr 2
Last Quarter
Apr 10
New
Apr 18
First Quarter

Hourly Weather History & Observations

Time (CDT) Temp. Windchill Dew Point Humidity Pressure Visibility Wind Dir Wind Speed Gust Speed Precip Events Conditions
12:56 AM 37.0 °F 34.5 °F 21.9 °F 54% 30.34 in 10.0 mi North 3.5 mph - N/A   Clear
1:56 AM 37.9 °F 34.4 °F 21.0 °F 51% 30.36 in 10.0 mi North 4.6 mph - N/A   Clear
2:56 AM 35.1 °F - 23.0 °F 61% 30.37 in 10.0 mi Calm Calm - N/A   Clear
3:56 AM 30.9 °F - 25.0 °F 79% 30.37 in 10.0 mi Calm Calm - N/A   Clear
4:56 AM 28.9 °F - 24.1 °F 82% 30.37 in 10.0 mi Calm Calm - N/A   Clear
5:56 AM 28.0 °F - 25.0 °F 88% 30.37 in 10.0 mi Calm Calm - N/A   Clear
6:56 AM 27.0 °F - 24.1 °F 89% 30.39 in 10.0 mi Calm Calm - N/A   Clear
7:56 AM 28.9 °F - 26.1 °F 89% 30.42 in 9.0 mi Calm Calm - N/A   Clear
8:56 AM 39.0 °F 36.8 °F 25.0 °F 57% 30.44 in 10.0 mi Variable 3.5 mph - N/A   Clear
9:56 AM 44.1 °F 39.0 °F 19.0 °F 37% 30.45 in 10.0 mi North 9.2 mph - N/A   Clear
10:56 AM 46.0 °F 41.4 °F 18.0 °F 33% 30.45 in 10.0 mi North 9.2 mph 19.6 mph N/A   Clear
11:56 AM 48.0 °F - 18.0 °F 30% 30.44 in 10.0 mi North 8.1 mph 17.3 mph N/A   Clear
12:56 PM 51.1 °F - 18.0 °F 27% 30.41 in 10.0 mi Variable 4.6 mph 16.1 mph 0.00 in   Clear
1:56 PM 53.1 °F - 19.0 °F 26% 30.39 in 10.0 mi NNE 11.5 mph 16.1 mph N/A   Clear
2:56 PM 55.0 °F - 21.0 °F 27% 30.36 in 10.0 mi Calm Calm - N/A   Clear
3:56 PM 55.9 °F - 18.0 °F 23% 30.34 in 10.0 mi North 8.1 mph - 0.00 in   Clear
4:56 PM 57.0 °F - 19.0 °F 23% 30.33 in 10.0 mi North 9.2 mph - N/A   Clear
5:56 PM 55.9 °F - 19.9 °F 25% 30.32 in 10.0 mi Variable 3.5 mph - N/A   Clear
6:56 PM 54.0 °F - 21.0 °F 28% 30.33 in 10.0 mi NNE 3.5 mph - N/A   Clear
7:56 PM 45.0 °F - 30.9 °F 58% 30.35 in 10.0 mi Calm Calm - N/A   Clear
8:56 PM 41.0 °F - 30.9 °F 67% 30.35 in 10.0 mi Calm Calm - N/A   Clear
9:56 PM 37.0 °F - 30.0 °F 76% 30.36 in 10.0 mi Calm Calm - N/A   Clear
10:56 PM 34.0 °F - 30.0 °F 85% 30.37 in 10.0 mi Calm Calm - N/A   Clear
11:56 PM 33.1 °F - 28.9 °F 85% 30.37 in 10.0 mi Calm Calm - N/A   Clear